[[{"header":{"parameterUnit":"m.s-1","parameterCategory":1,"la1":30.2991,"la2":30.254,"lo1":-89.0895,"lo2":-89.0444,"dy":0.0017,"dx":0.0017,"nx":28,"ny":28,"refTime":"2024-08-20T21:00:00:Z","depth":0,"parameterNumber":2,"parameterNumberName":"U-component_of_WINDS"},"data":[0,0,0,0,0,0,0,0,0,0,0,0,0,0,0,0,0,0,0,0,0,0,0,0,0,0,0,0,0,0,0,0,0,0,0,0,0,0,0,0,0,0,0,0,0,0,0,0,0,0,0,0,0,0,0,0,0,0,-0.1305,-0.1305,0,-0.128,-0.1279,-0.1279,-0.1222,-0.1221,-0.1219,-0.1218,-0.1194,-0.1194,-0.1195,0,0,0,0,0,0,0,0,0,0,0,0,0,-0.1304,-0.1304,-0.1305,-0.1305,-0.1304,-0.128,-0.1279,-0.1279,-0.1222,-0.1221,-0.1219,-0.1218,-0.1194,-0.1194,-0.1195,0,0,0,0,0,0,0,0,0,0,0,0,0,-0.1294,-0.1305,-0.1305,-0.1273,-0.127,-0.128,-0.1279,-0.1279,-0.1222,-0.1221,-0.1219,-0.1217,-0.1194,-0.1194,-0.1195,-0.1235,0,0,-0.1197,-0.1197,0,0,0,0,0,0,0,0,-0.1295,-0.1294,-0.1278,-0.1275,-0.1272,-0.1252,-0.127,-0.1264,-0.1223,-0.124,-0.1218,-0.1216,-0.1215,-0.1214,-0.1213,-0.1234,-0.1233,-0.1197,-0.1198,-0.1198,-0.1198,0,0,0,0,0,0,0,-0.1296,-0.1295,-0.1295,-0.1278,-0.1274,-0.126,-0.1256,-0.1269,-0.1238,-0.1239,-0.1235,-0.1232,-0.1213,-0.1212,-0.1212,-0.1232,-0.1197,-0.1198,-0.1198,-0.1199,-0.1283,-0.1284,0,0,0,0,0,0,-0.1301,-0.1296,-0.1296,-0.1294,-0.1279,-0.1261,-0.1258,-0.126,-0.1238,-0.1233,-0.1234,-0.123,-0.1212,-0.1211,-0.1211,-0.1255,-0.1198,-0.1199,-0.1199,-0.1281,-0.1283,-0.1285,0,0,0,0,0,0,-0.1301,-0.1301,-0.1297,-0.1294,-0.1292,-0.1263,-0.1267,-0.1261,-0.126,-0.1234,-0.1228,-0.1239,-0.1211,-0.121,-0.1229,-0.1253,-0.1199,-0.12,-0.1279,-0.1282,-0.1284,-0.1344,0,0,0,0,0,0,-0.1301,-0.1302,-0.1317,-0.1295,-0.1293,-0.1315,-0.1268,-0.1261,-0.1261,-0.1256,-0.1237,-0.1233,-0.1209,-0.1228,-0.123,-0.1253,-0.12,-0.1276,-0.128,-0.1283,-0.1339,-0.1348,-0.1355,0,0,0,0,0,-0.1302,-0.1335,-0.1318,-0.1318,-0.1311,-0.1317,-0.1316,-0.1288,-0.1264,-0.1278,-0.1261,-0.1233,-0.125,-0.1231,-0.1232,-0.1256,-0.1275,-0.1279,-0.1283,-0.1336,-0.1346,-0.1355,0,0,0,0,0,0,-0.1362,-0.1332,-0.1312,-0.134,-0.1331,-0.1307,-0.1325,-0.13,-0.1299,-0.1294,-0.1259,-0.1256,-0.1279,-0.1269,-0.1248,-0.1292,-0.1258,-0.1262,-0.1298,-0.1308,-0.1315,-0.1317,-0.1201,0,0,0,0,0,-0.1378,-0.1385,-0.1359,-0.1386,-0.1382,-0.1354,-0.1356,-0.1335,-0.1325,-0.1321,-0.1306,-0.1297,-0.1301,-0.1304,-0.1305,-0.1338,-0.1332,-0.1355,-0.1363,-0.137,-0.1374,-0.1389,-0.1398,-0.1299,-0.1298,-0.1298,0,0,-0.1412,-0.1397,-0.1404,-0.1397,-0.1388,-0.1396,-0.1352,-0.1363,-0.1368,-0.1323,-0.134,-0.1328,-0.1316,-0.1342,-0.1352,-0.1334,-0.14,-0.1375,-0.138,-0.1381,-0.1394,-0.1403,-0.1412,-0.1301,-0.1301,-0.13,0,0,-0.1478,-0.1468,-0.1488,-0.1479,-0.1466,-0.1447,-0.1452,-0.1431,-0.1421,-0.1437,-0.1403,-0.1409,-0.1416,-0.1408,-0.1406,-0.1467,-0.1441,-0.1469,-0.1511,-0.1526,-0.1534,-0.1541,-0.1561,-0.1569,-0.1473,-0.1474,-0.1474,0,-0.1522,-0.1533,-0.1502,-0.1514,-0.1512,-0.1471,-0.1491,-0.1484,-0.1472,-0.1472,-0.1452,-0.1458,-0.1448,-0.147,-0.1485,-0.1485,-0.1488,-0.1471,-0.1535,-0.1542,-0.1547,-0.1567,-0.1575,-0.1477,-0.1477,-0.1476,-0.1476,0,-0.1587,-0.1595,-0.1613,-0.1601,-0.1601,-0.1618,-0.1589,-0.1593,-0.1572,-0.1555,-0.1571,-0.1556,-0.1554,-0.1558,-0.1538,-0.1577,-0.1566,-0.1541,-0.1506,-0.1561,-0.1578,-0.1586,-0.1482,-0.1481,-0.148,-0.1479,0,0,-0.1691,-0.166,-0.1668,-0.1661,-0.1642,-0.1648,-0.1662,-0.1659,-0.1662,-0.1655,-0.1666,-0.1672,-0.1648,-0.1645,-0.1624,-0.1637,-0.1685,-0.161,-0.1609,-0.1624,-0.1726,-0.1744,-0.1753,-0.1668,-0.1669,-0.167,-0.1726,0,-0.1751,-0.1773,-0.1745,-0.1773,-0.178,-0.174,-0.1752,-0.1742,-0.1726,-0.1729,-0.1712,-0.1716,-0.1686,-0.1683,-0.1695,-0.1677,-0.1705,-0.1673,-0.1677,-0.1677,-0.168,-0.1762,-0.1782,-0.1836,-0.1733,-0.1734,-0.1735,0,-0.1825,-0.1821,-0.1849,-0.1827,-0.1829,-0.184,-0.1834,-0.1838,-0.1825,-0.1813,-0.1809,-0.1783,-0.1795,-0.1761,-0.1776,-0.1755,-0.1755,-0.1746,-0.1748,-0.1746,-0.1709,-0.1762,-0.1852,-0.186,-0.1746,-0.1745,-0.1744,0,-0.1896,-0.1897,-0.1914,-0.191,-0.1885,-0.1894,-0.1884,-0.187,-0.1869,-0.1864,-0.1863,-0.186,-0.1858,-0.1856,-0.1829,-0.1807,-0.1848,-0.1812,-0.1837,-0.1838,-0.1847,-0.1847,-0.1937,-0.1849,-0.1849,-0.1849,-0.1848,0,-0.1967,-0.1986,-0.1945,-0.1956,-0.1975,-0.1943,-0.1963,-0.1949,-0.1936,-0.1943,-0.1909,-0.1916,-0.1881,-0.1884,-0.1864,-0.1879,-0.1879,-0.1869,-0.1863,-0.1871,-0.1872,-0.187,-0.1865,-0.1851,-0.185,-0.185,-0.1849,0,-0.2049,-0.2023,-0.2039,-0.2014,-0.2008,-0.2023,-0.2002,-0.201,-0.1992,-0.2,-0.2001,-0.1972,-0.1974,-0.1947,-0.1944,-0.193,-0.1955,-0.1943,-0.1959,-0.1954,-0.1981,-0.1978,-0.2072,-0.2082,-0.1989,-0.199,-0.1991,0,-0.2095,-0.2109,-0.2085,-0.2086,-0.2078,-0.2081,-0.208,-0.2048,-0.2048,-0.2034,-0.2044,-0.2043,-0.204,-0.2045,-0.2024,-0.2021,-0.2008,-0.2041,-0.2007,-0.2015,-0.2007,-0.2006,-0.2007,-0.2048,-0.2049,-0.205,-0.2051,0,-0.218,-0.2166,-0.2165,-0.2159,-0.2158,-0.2153,-0.2145,-0.2148,-0.2114,-0.2115,-0.2116,-0.2114,-0.211,-0.2109,-0.2102,-0.2092,-0.2065,-0.2062,-0.2067,-0.2075,-0.2083,-0.2078,-0.1977,-0.206,-0.2059,-0.2058,-0.2058,-0.2057,-0.2244,-0.2254,-0.2238,-0.2238,-0.2228,-0.2221,-0.2227,-0.2209,-0.2209,-0.2203,-0.2185,-0.2188,-0.2174,-0.2162,-0.2154,-0.2156,-0.214,-0.2148,-0.215,-0.2152,-0.2156,-0.2084,-0.2155,-0.2155,-0.2154,-0.2154,-0.2154,0,-0.2326,-0.2313,-0.2313,-0.2303,-0.2302,-0.2277,-0.2267,-0.2268,-0.2272,-0.2261,-0.2258,-0.2259,-0.2257,-0.2236,-0.2232,-0.2238,-0.2225,-0.2237,-0.2236,-0.2234,-0.2172,-0.2167,-0.2247,-0.2247,-0.2247,-0.2247,-0.2247,-0.2247,-0.2368,-0.2382,-0.2366,-0.2374,-0.2362,-0.2365,-0.2361,-0.2354,-0.2345,-0.2346,-0.2345,-0.233,-0.2315,-0.2309,-0.2306,-0.23,-0.2299,-0.2315,-0.2305,-0.2248,-0.2238,-0.223,-0.2225,-0.2316,-0.2316,-0.2366,-0.2367,-0.2367]},{"header":{"parameterUnit":"m.s-1","parameterCategory":1,"la1":30.2991,"la2":30.254,"lo1":-89.0895,"lo2":-89.0444,"dy":0.0017,"dx":0.0017,"nx":28,"ny":28,"refTime":"2024-08-20T21:00:00:Z","depth":0,"parameterNumber":3,"parameterNumberName":"V-component_of_WINDS"},"data":[0,0,0,0,0,0,0,0,0,0,0,0,0,0,0,0,0,0,0,0,0,0,0,0,0,0,0,0,0,0,0,0,0,0,0,0,0,0,0,0,0,0,0,0,0,0,0,0,0,0,0,0,0,0,0,0,0,0,-2.1543,-2.1543,0,-2.1596,-2.1597,-2.1597,-2.1593,-2.1592,-2.1591,-2.159,-2.1643,-2.1645,-2.1647,0,0,0,0,0,0,0,0,0,0,0,0,0,-2.1434,-2.1436,-2.1543,-2.1543,-2.1544,-2.1596,-2.1597,-2.1598,-2.1593,-2.1592,-2.1591,-2.159,-2.1642,-2.1645,-2.1648,0,0,0,0,0,0,0,0,0,0,0,0,0,-2.1484,-2.1437,-2.1543,-2.1548,-2.1549,-2.1596,-2.1597,-2.1598,-2.1593,-2.1592,-2.159,-2.1589,-2.1642,-2.1645,-2.1648,-2.1692,0,0,-2.1658,-2.1659,0,0,0,0,0,0,0,0,-2.1481,-2.1488,-2.1546,-2.1548,-2.1549,-2.1586,-2.1578,-2.1629,-2.1593,-2.1576,-2.159,-2.1589,-2.1625,-2.163,-2.1642,-2.1695,-2.1697,-2.1658,-2.166,-2.1661,-2.1662,0,0,0,0,0,0,0,-2.1477,-2.1485,-2.1564,-2.1547,-2.1549,-2.1547,-2.1553,-2.1588,-2.1607,-2.1578,-2.1577,-2.1584,-2.1626,-2.1639,-2.1643,-2.1698,-2.1658,-2.1661,-2.1663,-2.1664,-2.1788,-2.1789,0,0,0,0,0,0,-2.1473,-2.1482,-2.1562,-2.1565,-2.1511,-2.155,-2.1556,-2.1576,-2.1606,-2.161,-2.1585,-2.1583,-2.1634,-2.164,-2.1645,-2.1698,-2.1661,-2.1665,-2.1666,-2.1787,-2.1788,-2.179,0,0,0,0,0,0,-2.1471,-2.148,-2.156,-2.1524,-2.1534,-2.1553,-2.1575,-2.1577,-2.1591,-2.1612,-2.1615,-2.1595,-2.1633,-2.1641,-2.168,-2.17,-2.1666,-2.1669,-2.1785,-2.1787,-2.1789,-2.1805,0,0,0,0,0,0,-2.1468,-2.1479,-2.1497,-2.1524,-2.1536,-2.1595,-2.1576,-2.1579,-2.1597,-2.1595,-2.1623,-2.1626,-2.1633,-2.1676,-2.1684,-2.1704,-2.1671,-2.1783,-2.1786,-2.1788,-2.1803,-2.1807,-2.1811,0,0,0,0,0,-2.1464,-2.1499,-2.1498,-2.1508,-2.1559,-2.1596,-2.1603,-2.1611,-2.1598,-2.1616,-2.1629,-2.1625,-2.1697,-2.168,-2.1689,-2.171,-2.1782,-2.1785,-2.1788,-2.1801,-2.1806,-2.1811,0,0,0,0,0,0,-2.1473,-2.1503,-2.1502,-2.1548,-2.1569,-2.1595,-2.1617,-2.1616,-2.1642,-2.1639,-2.1648,-2.1654,-2.1693,-2.1706,-2.1686,-2.1754,-2.1738,-2.1743,-2.1744,-2.175,-2.1754,-2.1749,-2.1674,0,0,0,0,0,-2.1481,-2.151,-2.1534,-2.1572,-2.1583,-2.1598,-2.1615,-2.1619,-2.1642,-2.1651,-2.1667,-2.1689,-2.1716,-2.1734,-2.176,-2.1805,-2.181,-2.1824,-2.1828,-2.1831,-2.1835,-2.1858,-2.1864,-2.18,-2.18,-2.18,0,0,-2.1497,-2.1516,-2.1534,-2.1574,-2.1592,-2.162,-2.1606,-2.1637,-2.1658,-2.1655,-2.1694,-2.1706,-2.1731,-2.1773,-2.1792,-2.1785,-2.1854,-2.1835,-2.1838,-2.184,-2.1862,-2.1868,-2.1873,-2.1802,-2.1801,-2.1801,0,0,-2.1539,-2.1558,-2.1591,-2.1608,-2.1635,-2.1645,-2.1653,-2.1679,-2.1687,-2.1726,-2.1724,-2.1749,-2.1796,-2.1814,-2.1828,-2.1877,-2.1874,-2.1886,-2.1907,-2.1929,-2.1934,-2.1939,-2.1955,-2.196,-2.1889,-2.189,-2.189,0,-2.1555,-2.1599,-2.1608,-2.1639,-2.1656,-2.1655,-2.1688,-2.1705,-2.1738,-2.175,-2.1741,-2.1799,-2.1816,-2.1861,-2.1873,-2.1886,-2.1894,-2.1882,-2.1933,-2.1938,-2.1942,-2.1957,-2.1963,-2.1891,-2.1891,-2.189,-2.189,0,-2.1616,-2.1646,-2.167,-2.1702,-2.1722,-2.1754,-2.1767,-2.1785,-2.1788,-2.1799,-2.1837,-2.1857,-2.1887,-2.1898,-2.1901,-2.1944,-2.1938,-2.1931,-2.1915,-2.1949,-2.1963,-2.1969,-2.1892,-2.1892,-2.1892,-2.1891,0,0,-2.1666,-2.1703,-2.1711,-2.1725,-2.1754,-2.1777,-2.1809,-2.1838,-2.1854,-2.1877,-2.1902,-2.1942,-2.1936,-2.1953,-2.1957,-2.1977,-2.2013,-2.1968,-2.1968,-2.1974,-2.2059,-2.2063,-2.2069,-2.2011,-2.2012,-2.2013,-2.2056,0,-2.171,-2.1766,-2.1775,-2.1823,-2.185,-2.185,-2.1877,-2.1897,-2.1908,-2.1932,-2.1944,-2.1971,-2.1962,-2.1972,-2.1991,-2.2004,-2.2029,-2.2001,-2.2033,-2.2034,-2.2026,-2.2077,-2.2082,-2.2121,-2.2062,-2.2063,-2.2064,0,-2.1769,-2.1794,-2.1846,-2.187,-2.1882,-2.1906,-2.1933,-2.1956,-2.1979,-2.1985,-2.2004,-2.2006,-2.2037,-2.2021,-2.2063,-2.2044,-2.2058,-2.2066,-2.2068,-2.207,-2.205,-2.2079,-2.2134,-2.214,-2.2073,-2.2072,-2.2072,0,-2.1798,-2.1845,-2.1881,-2.1894,-2.1923,-2.194,-2.1953,-2.1975,-2.1992,-2.2015,-2.2026,-2.2053,-2.2067,-2.2088,-2.2097,-2.2084,-2.2138,-2.2122,-2.2143,-2.2143,-2.2153,-2.2152,-2.221,-2.2165,-2.2165,-2.2165,-2.2164,0,-2.1846,-2.1877,-2.1894,-2.1916,-2.1951,-2.196,-2.1994,-2.2006,-2.2025,-2.2049,-2.2051,-2.2073,-2.2085,-2.2108,-2.2116,-2.2149,-2.2156,-2.2161,-2.2162,-2.216,-2.2159,-2.2168,-2.2165,-2.2166,-2.2166,-2.2166,-2.2165,0,-2.1884,-2.1897,-2.1936,-2.1961,-2.1968,-2.1992,-2.2013,-2.2034,-2.2045,-2.2075,-2.2083,-2.2099,-2.2127,-2.2138,-2.2173,-2.2177,-2.2215,-2.2215,-2.2207,-2.2207,-2.2227,-2.2224,-2.2291,-2.2299,-2.225,-2.2251,-2.2251,0,-2.1913,-2.1936,-2.1964,-2.198,-2.1994,-2.202,-2.2037,-2.2047,-2.2065,-2.2092,-2.211,-2.2138,-2.216,-2.2205,-2.2219,-2.2245,-2.2245,-2.2266,-2.2249,-2.2245,-2.2243,-2.2241,-2.2243,-2.2269,-2.227,-2.227,-2.227,0,-2.1962,-2.1967,-2.1992,-2.2019,-2.2039,-2.2061,-2.2082,-2.2095,-2.2108,-2.2128,-2.2156,-2.2174,-2.2209,-2.2236,-2.2263,-2.2275,-2.2275,-2.2276,-2.2282,-2.2279,-2.2273,-2.2275,-2.2215,-2.2274,-2.2274,-2.2274,-2.2273,-2.2273,-2.1995,-2.2016,-2.2038,-2.2065,-2.2082,-2.2102,-2.2122,-2.2135,-2.216,-2.2189,-2.2193,-2.2224,-2.2245,-2.228,-2.2294,-2.2317,-2.2312,-2.2321,-2.2323,-2.2324,-2.2325,-2.2271,-2.2323,-2.2322,-2.2322,-2.2322,-2.2322,0,-2.2043,-2.2057,-2.2082,-2.2111,-2.2133,-2.2131,-2.2154,-2.2172,-2.2198,-2.2218,-2.2241,-2.2273,-2.2299,-2.2316,-2.2342,-2.2358,-2.2358,-2.2364,-2.2362,-2.2365,-2.2329,-2.2321,-2.2363,-2.2363,-2.2363,-2.2363,-2.2363,-2.2363,-2.207,-2.2104,-2.2112,-2.2154,-2.2168,-2.2198,-2.2211,-2.2229,-2.2245,-2.2281,-2.2303,-2.2313,-2.2332,-2.2359,-2.2383,-2.2387,-2.2396,-2.2402,-2.2406,-2.2372,-2.2367,-2.2363,-2.2355,-2.2405,-2.2405,-2.244,-2.244,-2.244]}]]